Regional Weather Roundup
Issued by NWS

Home | Current Version | Previous Version | Graphics & Text | Print | Product List | Glossary On
Versions: 1 2 3 4 5 6 7 8 9 10 11 12 13 14 15 16 17 18 19 20 21 22 23 24 25 26 27 28 29 30 31 32 33 34 35 36 37 38 39 40 41 42 43 44 45 46 47 48 49 50
000
ASUS43 KMKX 210321
RWRWI

WISCONSIN REGIONAL WEATHER ROUNDUP
NATIONAL WEATHER SERVICE MILWAUKEE/SULLIVAN WI
1000 PM CDT MON OCT 20 2014

NOTE: "FAIR" INDICATES FEW OR NO CLOUDS BELOW 12,000 FEET WITH NO
SIGNIFICANT WEATHER AND/OR OBSTRUCTIONS TO VISIBILITY.

WIZ001-002-006>008-014>016-023>028-210400-
NORTHWEST WISCONSIN

CITY           SKY/WX    TMP DP  RH WIND       PRES   REMARKS
SUPERIOR ARPT  CLOUDY    48  37  66 N5        30.10S
ASHLAND        CLOUDY    47  42  83 NE10      30.11R
HAYWARD        CLOUDY    47  39  74 CALM      30.09R
SIREN          CLOUDY    48  39  69 E6        30.09R
CUMBERLAND     CLOUDY    45  37  76 NE6       30.08S
RICE LAKE      CLOUDY    46  40  78 N5        30.09S
CHETEK         MOCLDY    45  41  84 CALM      30.07S
LADYSMITH      CLOUDY    48  40  73 NE5       30.09R
EAU CLAIRE     PTCLDY    46  38  73 N5        30.06R
MENOMONIE      CLEAR     46  38  76 CALM      30.07R
NEW RICHMOND   CLEAR     40  39  95 CALM      30.08R
OSCEOLA        CLEAR     40  38  96 CALM      30.11R
$$

WIZ003>005-009-010-017-018-210400-
NORTH CENTRAL WISCONSIN

CITY           SKY/WX    TMP DP  RH WIND       PRES   REMARKS
MANITOWISH WTR CLOUDY    41  40  97 N10G16    30.06S
ARBOR VITAE    CLOUDY    42  40  92 NE8       30.06R
WOODRUFF       CLOUDY    42  40  92 NE8       30.06R
RHINELANDER    CLOUDY    41  38  89 NE6       30.06R
EAGLE RIVER    CLOUDY    40  39  97 N5        30.05S
LAND O LAKES   CLOUDY    40  37  89 N9        30.07R WCI  35
PHILLIPS       CLOUDY    45  39  81 N5        30.06R
TOMAHAWK       CLOUDY    44  40  87 CALM      30.06R
MEDFORD        CLOUDY    46  40  79 N5        30.06R
MERRILL        CLOUDY    46  41  84 N5        30.05S
$$

WIZ029-030-035-036-043>047-210400-
CENTRAL WISCONSIN

CITY           SKY/WX    TMP DP  RH WIND       PRES   REMARKS
WAUSAU         CLOUDY    45  40  82 NE5       30.04R
MOSINEE        NOT AVBL
MARSHFIELD     CLOUDY    49  40  71 N5        30.05R
STEVENS POINT  CLOUDY    45  38  78 N5        30.05S
WAUPACA        CLOUDY    50  40  68 N6        30.04R
WAUTOMA        CLOUDY    50  41  71 N6        30.04R
WISC RAPIDS    CLOUDY    49  40  71 N7        30.06R
CAMP DOUGLAS   MOCLDY    48  43  81 CALM      30.05R
$$

WIZ011>013-019>022-031-037>040-048>050-210400-
NORTHEAST WISCONSIN

CITY           SKY/WX    TMP DP  RH WIND       PRES   REMARKS
ANTIGO         CLOUDY    42  39  92 N7        30.05R
SHAWANO        CLOUDY    49  40  73 N8        30.04R
OCONTO         CLOUDY    46  41  84 N5        30.02R
STURGEON BAY   CLOUDY    46  37  71 N17       30.01S
GREEN BAY      CLOUDY    48  41  76 N8        30.03R
MANITOWOC      CLOUDY    49  43  80 N10       30.01R
APPLETON       CLOUDY    46  43  87 N6        30.03R
CLINTONVILLE   CLOUDY    46  39  76 N5        30.03S
OSHKOSH        CLOUDY    49  45  86 NE5       30.02R
$$

WIZ032>034-041-042-053>061-210400-
SOUTHWEST WISCONSIN

CITY           SKY/WX    TMP DP  RH WIND       PRES   REMARKS
LA CROSSE      CLEAR     47  41  80 NW6       30.05R
SPARTA         CLOUDY    50  38  64 N3        30.06R
VIROQUA        CLEAR     45  38  78 CALM      30.04S
BOSCOBEL       CLEAR     44  39  82 CALM      30.05R
PRAIRIE DU CHI CLEAR     50  39  65 CALM      30.04R
PLATTEVILLE    CLEAR     46  40  80 CALM      30.04R
$$

WIZ056-057-062-063-064-067-068-210400-
SOUTH CENTRAL WISCONSIN

CITY           SKY/WX    TMP DP  RH WIND       PRES   REMARKS
REEDSBURG      CLOUDY    51  40  66 N6        30.04R
BARABOO/DELLS  CLOUDY    51  38  62 N3        30.04R
LONE ROCK      CLOUDY    56  39  53 NE6       30.04R
MINERAL POINT  CLEAR     48  37  66 N3        30.03S
MADISON        CLOUDY    52  40  63 N8        30.03R
MIDDLETON      CLOUDY    52  41  65 N5        30.04R
WATERTOWN      CLOUDY    49  44  81 NW3       30.01S
MONROE         CLOUDY    48  43  81 N5        30.02R
JANESVILLE     CLOUDY    54  41  62 N8        30.01S
$$

WIZ051-052-058>065-066-070>072-210400-
SOUTHEAST WISCONSIN

CITY           SKY/WX    TMP DP  RH WIND       PRES   REMARKS
MILWAUKEE      MOCLDY    51  42  71 N7        30.01R
WAUKESHA       CLOUDY    46  41  81 NW5       30.02R
MILWAUKEE/TIMM CLOUDY    50  41  71 NW3       30.01S
RACINE         CLOUDY    51  45  79 NW7       30.02R
BURLINGTON     CLOUDY    49  41  71 N7        30.01S
KENOSHA        CLOUDY    51  43  74 NW6       30.00S
FOND DU LAC    CLOUDY    48  44  86 N13       30.03R
SHEBOYGAN      CLOUDY    48  43  82 NW8       30.01R
WEST BEND      CLOUDY    48  41  76 NW3       30.01R
JUNEAU         CLOUDY    49  42  77 NW7       30.03R
$$

LSZ147-162-210400-
LAKE SUPERIOR

STATION/POSITION TIME  TEMP    WIND        PRES    WAVE
                       AIR SEA DIR/SP/G            HT/PER
                 (UTC) (F)     (DEG/KT/KT) (MB)    (FT/S)
W MID LAKE BUOY  0250   44 46   20/ 17/ 19 1020.1R   4/ 5
DEVILS ISLAND    0300   46      80/ 17/ 18 1020.4R
PORT WING        0200   49      40/ 14/ 16 1019.3
SAXON HARBOR     0200   48      50/ 12/ 14 1018.6R
$$

LMZ867-665-643>646-210400-
LAKE MICHIGAN

STATION/POSITION TIME  TEMP    WIND        PRES    WAVE
                       AIR SEA DIR/SP/G            HT/PER
                 (UTC) (F)     (DEG/KT/KT) (MB)    (FT/S)
CHAMBERS ISLAND  0200   48     330/ 17/ 21 1015.9R
N MID LAKE BUOY  0250   47 52  340/ 23/ 27 1014.7R   5/ 5
NORTHPORT PIER   0304   47     340/ 20/ 25 1015.9R
KEWAUNEE LAKESHO 0100          350/  3/  5   N/A
SHEBOYGAN LAKESH 0300   50 50  330/  9/ 13 1016.5R
PORT WASHINGTON  0200   51     300/  4/  5 1016.6
ATWATER BUOY     0300   52     320/  8/ 10 1017.0R
MILWAUKEE LAKESH 0200   52     340/  8/ 10   N/A
S MID LAKE BUOY  0250   53 55  330/ 17/ 19 1015.1R   3/ 5
KENOSHA   LAKESH 0300   52     350/ 10/ 13 1015.9R
$$

TC  - TEMPERATURE IN CELSIUS
VSB - VISIBILITY IN STATUTE MILES
WCI - WIND CHILL INDEX
HX  - HEAT INDEX




USA.gov is the U.S. government's official web portal to all federal, state and local government web resources and services.